TimePDT,TemperatureF,Dew PointF,Humidity,Sea Level PressureIn,VisibilityMPH,Wind Direction,Wind SpeedMPH,Gust SpeedMPH,PrecipitationIn,Events,Conditions,WindDirDegrees,DateUTC
12:15 AM,64.4,55.4,73,29.92,10.0,SE,11.5,-,N/A,,Clear,140,2013-09-12 07:15:00
12:35 AM,64.4,55.4,73,29.92,10.0,SE,9.2,-,N/A,,Clear,140,2013-09-12 07:35:00
12:55 AM,62.6,55.4,77,29.92,10.0,SE,10.4,-,N/A,,Clear,140,2013-09-12 07:55:00
1:15 AM,62.6,55.4,77,29.92,10.0,SE,9.2,-,N/A,,Clear,140,2013-09-12 08:15:00
1:35 AM,62.6,55.4,77,29.92,10.0,SE,8.1,-,N/A,,Clear,140,2013-09-12 08:35:00
1:55 AM,62.6,55.4,77,29.92,10.0,SE,9.2,-,N/A,,Clear,130,2013-09-12 08:55:00
2:15 AM,62.6,55.4,77,29.92,10.0,SE,10.4,-,N/A,,Clear,130,2013-09-12 09:15:00
2:35 AM,62.6,55.4,77,29.91,10.0,SE,10.4,-,N/A,,Clear,140,2013-09-12 09:35:00
2:55 AM,62.6,55.4,77,29.91,10.0,SE,10.4,-,N/A,,Clear,140,2013-09-12 09:55:00
3:15 AM,62.6,55.4,77,29.92,10.0,SE,9.2,-,N/A,,Clear,140,2013-09-12 10:15:00
3:35 AM,62.6,55.4,77,29.92,10.0,SE,9.2,-,N/A,,Clear,130,2013-09-12 10:35:00
3:55 AM,60.8,55.4,82,29.92,10.0,SSE,8.1,-,N/A,,Clear,150,2013-09-12 10:55:00
4:15 AM,60.8,55.4,82,29.92,10.0,SE,9.2,-,N/A,,Clear,140,2013-09-12 11:15:00
4:35 AM,60.8,55.4,82,29.92,10.0,SE,8.1,-,N/A,,Clear,130,2013-09-12 11:35:00
4:55 AM,60.8,55.4,82,29.92,10.0,SE,8.1,-,N/A,,Clear,130,2013-09-12 11:55:00
5:15 AM,60.8,55.4,82,29.92,10.0,SE,6.9,-,N/A,,Clear,130,2013-09-12 12:15:00
5:35 AM,60.8,55.4,82,29.92,10.0,ESE,6.9,-,N/A,,Clear,120,2013-09-12 12:35:00
5:55 AM,60.8,55.4,82,29.92,10.0,ESE,6.9,-,N/A,,Clear,120,2013-09-12 12:55:00
6:15 AM,60.8,55.4,82,29.93,10.0,SE,5.8,-,N/A,,Clear,130,2013-09-12 13:15:00
6:35 AM,60.8,55.4,82,29.93,10.0,SE,5.8,-,N/A,,Clear,140,2013-09-12 13:35:00
6:55 AM,60.8,55.4,82,29.93,10.0,SSE,5.8,-,N/A,,Clear,150,2013-09-12 13:55:00
7:15 AM,60.8,55.4,82,29.94,10.0,SSE,6.9,-,N/A,,Clear,160,2013-09-12 14:15:00
7:35 AM,60.8,55.4,82,29.94,10.0,SE,4.6,-,N/A,,Clear,130,2013-09-12 14:35:00
7:55 AM,62.6,55.4,77,29.95,10.0,SE,6.9,-,N/A,,Clear,140,2013-09-12 14:55:00
8:15 AM,64.4,55.4,73,29.95,10.0,SE,8.1,-,N/A,,Clear,140,2013-09-12 15:15:00
8:35 AM,64.4,55.4,73,29.95,10.0,SE,4.6,-,N/A,,Clear,130,2013-09-12 15:35:00
8:55 AM,64.4,55.4,73,29.96,10.0,Calm,Calm,-,N/A,,Clear,0,2013-09-12 15:55:00
9:15 AM,68.0,55.4,64,29.96,10.0,East,3.5,-,N/A,,Clear,100,2013-09-12 16:15:00
9:35 AM,68.0,55.4,64,29.96,10.0,SE,3.5,-,N/A,,Clear,130,2013-09-12 16:35:00
9:55 AM,69.8,55.4,60,29.95,10.0,South,5.8,-,N/A,,Clear,190,2013-09-12 16:55:00
10:15 AM,71.6,55.4,57,29.95,10.0,South,3.5,-,N/A,,Clear,180,2013-09-12 17:15:00
10:35 AM,73.4,55.4,53,29.95,10.0,Calm,Calm,-,N/A,,Clear,0,2013-09-12 17:35:00
10:55 AM,73.4,55.4,53,29.94,10.0,Calm,Calm,-,N/A,,Clear,0,2013-09-12 17:55:00
11:15 AM,75.2,55.4,50,29.94,10.0,WSW,3.5,-,N/A,,Clear,240,2013-09-12 18:15:00
11:35 AM,77.0,53.6,44,29.94,10.0,WSW,4.6,-,N/A,,Clear,250,2013-09-12 18:35:00
11:55 AM,77.0,53.6,44,29.93,10.0,WSW,4.6,-,N/A,,Clear,240,2013-09-12 18:55:00
12:15 PM,78.8,53.6,42,29.93,10.0,SSW,4.6,-,N/A,,Clear,210,2013-09-12 19:15:00
12:35 PM,78.8,53.6,42,29.92,10.0,Calm,Calm,-,N/A,,Clear,0,2013-09-12 19:35:00
12:55 PM,80.6,53.6,39,29.91,10.0,WSW,3.5,-,N/A,,Clear,250,2013-09-12 19:55:00
1:15 PM,80.6,55.4,42,29.91,10.0,WSW,5.8,-,N/A,,Clear,240,2013-09-12 20:15:00
1:35 PM,80.6,55.4,42,29.90,10.0,Calm,Calm,-,N/A,,Clear,0,2013-09-12 20:35:00
1:55 PM,82.4,53.6,37,29.88,10.0,NW,3.5,-,N/A,,Clear,310,2013-09-12 20:55:00
2:15 PM,82.4,53.6,37,29.88,10.0,WSW,5.8,-,N/A,,Clear,250,2013-09-12 21:15:00
2:35 PM,84.2,53.6,35,29.87,10.0,Calm,Calm,-,N/A,,Clear,0,2013-09-12 21:35:00
2:55 PM,86.0,51.8,31,29.86,10.0,WSW,5.8,-,N/A,,Clear,250,2013-09-12 21:55:00
3:15 PM,86.0,51.8,31,29.85,10.0,Calm,Calm,-,N/A,,Clear,0,2013-09-12 22:15:00
3:35 PM,86.0,51.8,31,29.84,10.0,West,4.6,-,N/A,,Clear,280,2013-09-12 22:35:00
3:55 PM,87.8,51.8,29,29.84,10.0,SSW,3.5,-,N/A,,Clear,200,2013-09-12 22:55:00
4:15 PM,87.8,51.8,29,29.83,10.0,WNW,3.5,-,N/A,,Clear,290,2013-09-12 23:15:00
4:35 PM,87.8,50.0,27,29.83,10.0,SSW,3.5,-,N/A,,Clear,210,2013-09-12 23:35:00
4:55 PM,87.8,48.2,25,29.82,10.0,Calm,Calm,-,N/A,,Clear,0,2013-09-12 23:55:00
5:15 PM,87.8,44.6,22,29.81,10.0,Calm,Calm,-,N/A,,Clear,0,2013-09-13 00:15:00
5:35 PM,87.8,46.4,24,29.81,10.0,South,3.5,-,N/A,,Clear,170,2013-09-13 00:35:00
5:55 PM,87.8,50.0,27,29.81,10.0,South,3.5,-,N/A,,Clear,190,2013-09-13 00:55:00
6:15 PM,87.8,50.0,27,29.81,10.0,SW,3.5,-,N/A,,Clear,230,2013-09-13 01:15:00
6:35 PM,86.0,50.0,29,29.81,10.0,SW,3.5,-,N/A,,Clear,230,2013-09-13 01:35:00
6:55 PM,86.0,50.0,29,29.81,10.0,Calm,Calm,-,N/A,,Clear,0,2013-09-13 01:55:00
7:15 PM,84.2,50.0,30,29.81,10.0,Calm,Calm,-,N/A,,Clear,0,2013-09-13 02:15:00
7:35 PM,82.4,50.0,32,29.80,10.0,Calm,Calm,-,N/A,,Clear,0,2013-09-13 02:35:00
7:55 PM,80.6,51.8,37,29.81,10.0,Calm,Calm,-,N/A,,Clear,0,2013-09-13 02:55:00
8:15 PM,80.6,50.0,34,29.82,10.0,SSE,4.6,-,N/A,,Clear,160,2013-09-13 03:15:00
8:35 PM,78.8,51.8,39,29.83,10.0,South,6.9,-,N/A,,Clear,180,2013-09-13 03:35:00
8:55 PM,75.2,55.4,50,29.83,10.0,South,6.9,-,N/A,,Clear,180,2013-09-13 03:55:00
9:15 PM,73.4,57.2,57,29.83,10.0,South,6.9,-,N/A,,Clear,190,2013-09-13 04:15:00
9:35 PM,71.6,55.4,57,29.83,10.0,SSW,8.1,-,N/A,,Clear,200,2013-09-13 04:35:00
9:55 PM,71.6,55.4,57,29.83,10.0,South,6.9,-,N/A,,Clear,170,2013-09-13 04:55:00
10:15 PM,69.8,55.4,60,29.83,10.0,SSW,5.8,-,N/A,,Clear,200,2013-09-13 05:15:00
10:35 PM,69.8,55.4,60,29.83,10.0,South,4.6,-,N/A,,Clear,170,2013-09-13 05:35:00
10:55 PM,69.8,55.4,60,29.84,10.0,SSE,5.8,-,N/A,,Clear,160,2013-09-13 05:55:00
11:15 PM,69.8,55.4,60,29.84,10.0,South,5.8,-,N/A,,Clear,170,2013-09-13 06:15:00
11:35 PM,68.0,55.4,64,29.85,10.0,ESE,4.6,-,N/A,,Clear,120,2013-09-13 06:35:00
11:55 PM,71.6,55.4,57,29.85,10.0,ESE,3.5,-,N/A,,Clear,120,2013-09-13 06:55:00